This demonstration page uses our WeatherBlox Daily Observations layout. Learn more.

Left ArrowRight Arrow

39.01783, -85.05884

Hourly Observations for December 4, 2021

Temp ( °F °C ) Dew Point ( °F °C ) Humidity (%) Winds ( mph kmh ) Pressure ( in mb ) Visibility ( mi km ) Precip ( " mm )
12:52 am 00:52 Clear 42 5.6 32 undefined 68 68 N 7 11 30.00 1016 10 16 N/A
1:52 am 01:52 Clear 43 6.1 31 -0.6 63 63 NNE 5 7 30.01 1016 10 16 N/A
2:52 am 02:52 Clear 40 4.4 32 undefined 73 73 N 8 13 30.04 1017 10 16 N/A
3:52 am 03:52 Clear 38 3.3 32 undefined 79 79 NNE 10 17 30.05 1018 10 16 N/A
4:52 am 04:52 Mostly Clear 38 3.3 32 undefined 79 79 NNE 8 13 30.07 1018 10 16 N/A
5:52 am 05:52 Mostly Clear 38 3.3 32 undefined 79 79 NNE 10 17 30.10 1019 10 16 N/A
6:52 am 06:52 Mostly Clear 38 3.3 32 undefined 79 79 NNE 10 17 30.14 1021 10 16 N/A
7:52 am 07:52 Partly Cloudy 37 2.8 32 undefined 82 82 N 10 17 30.18 1022 9 14 N/A
8:52 am 08:52 Mostly Cloudy 39 3.9 33 0.6 79 79 NNE 7 11 30.22 1023 10 16 N/A
9:52 am 09:52 Partly Cloudy 44 6.7 33 0.6 65 65 NE 8 13 30.22 1024 10 16 N/A
10:52 am 10:52 Mostly Sunny 47 8.3 32 undefined 56 56 ENE 8 13 30.23 1024 10 16 N/A
11:52 am 11:52 Partly Cloudy 50 10 32 undefined 50 50 N 13 20 30.23 1024 10 16 N/A
12:52 pm 12:52 Partly Cloudy 52 11.1 30 -1.1 43 43 N 9 15 30.22 1023 10 16 N/A
1:52 pm 13:52 Partly Cloudy 53 11.7 30 -1.1 41 41 NE 6 9 30.21 1023 10 16 N/A
2:52 pm 14:52 Sunny 53 11.7 25 -3.9 34 34 NNE 10 17 30.21 1023 10 16 N/A
3:52 pm 15:52 Mostly Cloudy 51 10.6 25 -3.9 36 36 N 9 15 30.22 1023 10 16 N/A
4:52 pm 16:52 Mostly Cloudy 47 8.3 25 -3.9 42 42 N 7 11 30.25 1024 10 16 N/A
5:52 pm 17:52 Partly Cloudy 44 6.7 25 -3.9 47 47 NNE 8 13 30.26 1025 10 16 N/A
6:52 pm 18:52 Clear 43 6.1 25 -3.9 49 49 N N/A 30.27 1025 10 16 N/A
7:52 pm 19:52 Clear 40 4.4 25 -3.9 55 55 N 8 13 30.27 1025 10 16 N/A
8:52 pm 20:52 Clear 40 4.4 25 -3.9 55 55 N 10 17 30.27 1025 10 16 N/A
9:52 pm 21:52 Clear 39 3.9 25 -3.9 57 57 NNE 5 7 30.27 1025 10 16 N/A
10:52 pm 22:52 Clear 38 3.3 26 -3.3 62 62 NNE 6 9 30.27 1025 10 16 N/A
11:52 pm 23:52 Clear 39 3.9 25 -3.9 57 57 NE 13 20 30.26 1025 10 16 N/A

Powered by AerisWeather